• MPC Preparation (Info)

  • MPEC 2023-P59 : 2023 PT

    The following Minor Planet Electronic Circular may be linked-to from your own Web pages, but must not otherwise be redistributed electronically.

    A form allowing access to any MPEC is at the bottom of this page.


    Read MPEC 2023-P58 Read MPEC 2023-P60


    M.P.E.C. 2023-P59                               Issued 2023 August 12, 03:58 UT
    
         The Minor Planet Electronic Circulars contain information on unusual
             minor planets, routine data on comets and natural satellites,
             and occasional editorial announcements.  They are published
        on behalf of Division F of the International Astronomical Union by the
              Minor Planet Center, Smithsonian Astrophysical Observatory,
                              Cambridge, MA 02138, U.S.A.
    			  
                 Prepared using the Tamkin Foundation Computer Network
    
                                  MPC@CFA.HARVARD.EDU
                URL https://www.minorplanetcenter.net/    ISSN 1523-6714
    
                                     2023 PT                                 
    
    
    Observations:
         K23P00T*KC2023 08 11.23704 23 55 57.89 -21 43 46.8          19.4 GVEP059W94
         K23P00T KC2023 08 11.24327 23 55 57.34 -21 45 04.4          19.1 GVEP059W94
         K23P00T KC2023 08 11.24949 23 55 56.75 -21 46 21.0          19.3 GVEP059W94
         K23P00T KC2023 08 11.30738 23 55 51.06 -21 57 53.9          19.9 GVEP059X10
         K23P00T KC2023 08 11.31301 23 55 50.50 -21 58 58.6          18.5 GVEP059X10
         K23P00T KC2023 08 11.31864 23 55 49.96 -22 00 03.1          19.4 GVEP059X10
         K23P00T KC2023 08 11.32600 23 55 49.21 -22 01 26.8          19.9 GVEP059X10
         K23P00T KC2023 08 11.33157 23 55 48.68 -22 02 29.3          20.6 GVEP059X10
         K23P00T KC2023 08 11.33717 23 55 48.17 -22 03 32.7          20.1 GVEP059X10
         K23P00T  C2023 08 11.34287923 55 49.80 -22 03 29.2                WEP059X09
         K23P00T  C2023 08 11.34987823 55 49.20 -22 04 48.3                WEP059X09
         K23P00T  C2023 08 11.35687523 55 48.64 -22 06 04.9                WEP059X09
         K23P00T KB2023 08 11.35801 23 56 02.25 -22 15 21.6          19.4 rZEP059H36
         K23P00T KB2023 08 11.36394 23 56 01.82 -22 16 27.7          19.1 rZEP059H36
         K23P00T KB2023 08 11.36986 23 56 01.44 -22 17 34.6          19.4 rZEP059H36
         K23P00T KC2023 08 11.59242 23 56 29.34 -22 47 07.1          19.2 RqEP059E94
         K23P00T KC2023 08 11.60163 23 56 28.76 -22 48 41.6          19.2 RqEP059E94
         K23P00T KC2023 08 11.61052 23 56 28.15 -22 50 10.7          19.2 RqEP059E94
         K23P00T KC2023 08 12.02800223 57 12.86 -24 02 37.2          19.7 GXEP059L01
         K23P00T IC2023 08 12.02932723 57 12.82 -24 02 48.1                XEP059L01
         K23P00T IC2023 08 12.03062723 57 12.75 -24 02 59.6          19.4 GXEP059L01
         K23P00T KB2023 08 12.03141323 57 36.404-23 54 43.28         19.6 GXEP059Y05
         K23P00T KC2023 08 12.03192923 57 12.64 -24 03 10.1          19.4 GXEP059L01
         K23P00T KC2023 08 12.03322023 57 12.62 -24 03 20.3          19.7 GXEP059L01
         K23P00T KB2023 08 12.03760223 57 36.533-23 55 41.41         20.4 GXEP059Y05
         K23P00T KB2023 08 12.04373523 57 36.594-23 56 38.79         19.9 GXEP059Y05
    
    Observer details:
    E94 Possum Observatory, Gisborne.  Observer J. Drummond.  0.41-m f/4.5
        Newtonian + CCD.
    H36 Sandlot Observatory, Scranton.  Observer G. Hug.  0.56-m f/4.8 reflector +
        CMO.
    L01 Visnjan Observatory, Tican.  Observers K. Korlevic, L. Gelo, L. Ilisevic,
        I. Paleka, E. Pettarin.  Measurer I. Paleka.  1.0-m f/2.9 reflector + CCD.
    W94 MAP, San Pedro de Atacama.  Observers A. Maury, G. Attard.  Measurers D.
        Parrott, F. Signoret, J.-M. Mari.  0.28-m f/2.2 Schmidt astrograph + CCD.
    X09 Deep Random Survey, Rio Hurtado.  Observers A. Schnabel, D. Ruhela.
        Measurer S. Deen.  0.43-m reflector + CMOS.
    X10 OVTLN, San Pedro de Atacama.  Observers A. Maury, G. Attard, F. Signoret.
        Measurers A. Maury, G. Attard, D. Parrott, J.-M. Mari.  0.50-m f/4
        reflector + CCD.
    Y05 SONEAR Wykrota-CEAMIG, Serra da Piedade.  Observer C. Jacques.  0.45-m
        f/2.9 reflector + CMO.
    
    Orbital elements:
    2023 PT                                                  Earth MOID = 0.0029 AU
    Epoch 2023 Sept. 13.0 TT = JDT 2460200.5                Veres                   
    M  42.67479              (2000.0)            P               Q                  
    n   0.60442024     Peri.  139.28788     +0.09452843     +0.99207783             
    a   1.3854049      Node   135.95086     -0.94146906     +0.11610062             
    e   0.3060931      Incl.    6.83460     -0.32357440     -0.04798149             
    P   1.63           H   27.07          G   0.15           U   8                  
    Residuals in seconds of arc
    230811 W94  0.4+  0.1-    230811 X09  0.7+  0.2-    230812 L01  1.3-  0.2-
    230811 W94  0.3+  0.0     230811 X09  0.0   1.2-    230812 L01  0.8-  0.0
    230811 W94  0.1-  0.4+    230811 X09  0.4-  0.4-    230812 L01  0.7-  0.6-
    230811 X10  0.2-  0.3-    230811 H36  0.2-  0.7-    230812 Y05  0.5-  0.5+
    230811 X10  0.2-  0.1-    230811 H36  0.7-  0.1+    230812 L01  1.2-  0.2-
    230811 X10  0.0   0.1-    230811 H36  0.4-  0.4-    230812 L01  0.5-  0.4+
    230811 X10  0.4-  0.0     230811 E94  0.7-  0.1+    230812 Y05  0.0   0.2-
    230811 X10  0.4-  0.4+    230811 E94  0.4+  0.3-    230812 Y05  0.1+  0.8-
    230811 X10  0.2-  0.2-    230811 E94  0.8+  0.7+
    
    Ephemeris:
    2023 PT                  a,e,i = 1.39, 0.31, 7                   q = 0.9613
    Date    TT    R. A. (2000) Decl.     Delta      r    Elong.  Phase     V
    2023 07 13    11 53 05.5 +34 29 35   0.1098  0.9646    59.0   115.4    26.7
    ...
    2023 07 28    12 06 10.8 +37 09 49   0.04546 0.9874    50.8   127.1    25.8
    ...
    2023 08 05    12 24 06.6 +50 36 14   0.01154 1.0076    52.7   126.7    22.8
    ...
    2023 08 11    23 55 11.8 -20 53 27   0.01518 1.0258   143.0    36.4    19.5
    2023 08 12    23 57 04.3 -23 51 41   0.01937 1.0291   143.2    36.2    20.0
    2023 08 13    23 58 13.5 -25 46 13   0.02360 1.0324   143.4    35.8    20.5
    ...
    2023 08 19    23 59 41.1 -30 12 16   0.04937 1.0534   145.7    32.8    22.0
    ...
    2023 08 27    23 57 12.5 -31 31 11   0.08476 1.0842   149.2    28.5    23.1
    ...
    2023 09 11    23 49 31.4 -30 56 45   0.1566  1.1483   152.7    23.7    24.5
    
    M. P. C. Staff               (C) Copyright 2023 MPC           M.P.E.C. 2023-P59
    


    Read MPEC 2023-P58 Read MPEC 2023-P60


    MPEC number:

    Enter an MPEC number in one of the following forms:

    • 1997-B01 (the full form)
    • J97B01 (the packed version of the full form)
    • B01 (the abbreviated form)